Retour au catalogue

FENGYUN 1C DEB

ActifSSO
NORAD 37589·DEBRIS·🇨🇳 China

Lancé May 10, 1999 depuis Taiyuan Satellite Launch Center

Loading…

Prochains Passages (prochaines 24 heures)

TLE

PériméSource: Space-Track

Époque: Aug 30, 2026, 23:07 UTC

1 37589U 99025EKH 26242.96342787  .00002823  00000-0  15194-2 0  9996
2 37589  99.0681 152.5604 0112554 252.6063 106.2774 14.10479981862649

Suivez FENGYUN 1C DEB en temps réel avec AllMySat

Download on the App Store